{"data":{"norad_id":65988,"intl_designator":"2025-230Q","name":"SDA_1678","alt_names":[],"object_type":"PAYLOAD","status":"ACTIVE","operator":null,"country":"US","launch_date":"2025-10-15","launch_site_code":"AFWTR","launch_vehicle":null,"mission":null,"orbit_class":"UNKNOWN","rcs_meters":null,"size_class":null,"mass_kg":null,"dimensions":null,"purposes":[],"wikipedia_slug":null,"has_3d_model":false,"image_url":null,"decayed_at":null,"tle_current":{"epoch":"2026-05-25T05:13:12.679968Z","epoch_age_seconds":56031,"freshness":"FRESH","line1":"1 65988U 25230Q   26145.21750787  .00000210  00000+0  17500-3 0  9991","line2":"2 65988  81.3017 232.8403 0000391 238.1001 122.0118 13.84978330 30642","mean_motion":13.8497833,"eccentricity":3.91e-5,"inclination_deg":81.3017,"raan_deg":232.8403,"arg_perigee_deg":238.1001,"mean_anomaly_deg":122.0118,"bstar":0.000175,"rev_number":3064,"period_min":103.97274591293,"perigee_km":945.99575999575,"apogee_km":946.56852957287,"semimajor_km":7324.4191447843,"source":"CELESTRAK","updated_at":"2026-05-25T13:38:05.880525Z"}}}